Flag for India Weather past 2 weeks in Balurghat, West Bengal, India

Now
46 °F

Fog.


Feels Like: 46 °F
Forecast: 55 / 75 °F
Wind: No wind

Location: Lucknow / Amausi

Current Time: Dec 28, 2014 at 4:29:22 AM

Latest Report: Dec 28, 2014 at 3:00 AM


Visibility: 0 mi

Pressure: 30.07 "Hg

Humidity: 100%

Dew point: 46 °F

Location of BalurghatLocation

Historic Weather in Balurghat — Graph

°F

Balurghat temperature yesterday

Maximum temperature yesterday: 59 °F (at 4:00 PM)
Minimum temperature yesterday: 43 °F (at 5:00 AM)
Average temperature yesterday: 49 °F

Past Weeks' High & Low Weather Summary

 TemperatureHumidityPressure
High70 °F (Dec 15, 2:30 PM)100% (Dec 14, 1:00 AM)30.24 "Hg (Dec 14, 1:00 AM)
Low36 °F (Dec 24, 7:00 AM)35% (Dec 24, 1:30 PM)29.95 "Hg (Dec 26, 4:30 PM)
Average56 °F81%30.06 "Hg
* Reported Dec 13 3:00 AM — Dec 28 3:00 AM, Balurghat, Weather by CustomWeather, © 2014

Note: Actual official high and low records may vary slightly from our data, if they occured in-between our weather recording intervals... More about our weather records

Advertising

Balurghat weather history for previous 24 hours

 ConditionsComfort  
Time TempWeatherWind HumidityBarometerVisibility
3:00 AM
Dec 28
46 °FFog.No wind100%30.07 "Hg0 mi
2:00 AM46 °FFog.No wind100%30.07 "Hg0 mi
1:00 AM46 °FFog.2 mph100%30.07 "Hg0 mi
11:00 PM
Dec 27
45 °FFog.No wind93%30.09 "Hg0 mi
10:00 PM46 °FFog.2 mph93%30.09 "Hg0 mi
9:00 PM48 °FFog.2 mph94%30.09 "Hg0 mi
8:30 PM48 °FFog.No wind87%30.09 "Hg0 mi
8:00 PM50 °FFog.No wind94%30.09 "Hg0 mi
7:30 PM52 °FFog.No wind88%30.09 "Hg1 mi
6:30 PM54 °FFog.2 mph82%30.07 "Hg1 mi
6:00 PM55 °FFog.2 mph88%30.07 "Hg1 mi
5:30 PM55 °FFog.2 mph88%30.07 "Hg1 mi
4:30 PM57 °FClear.2 mph72%30.04 "Hg1 mi
4:00 PM59 °FClear.2 mph68%30.04 "Hg1 mi
3:30 PM57 °FClear.2 mph72%30.04 "Hg1 mi
3:00 PM57 °FHaze.2 mph72%30.04 "Hg1 mi
2:30 PM57 °FClear.2 mph72%30.04 "Hg1 mi
1:30 PM55 °FFog.2 mph77%30.04 "Hg1 mi
1:00 PM50 °FFog.2 mph94%30.07 "Hg1 mi
12:30 PM50 °FFog.2 mph88%30.07 "Hg1 mi
11:30 AM48 °FFog.3 mph94%30.09 "Hg1 mi
11:00 AM48 °FFog.3 mph94%30.09 "Hg1 mi
10:30 AM48 °FFog.3 mph94%30.09 "Hg0 mi
10:00 AM46 °FFog.3 mph100%30.09 "Hg0 mi
8:30 AM45 °FFog.2 mph100%30.07 "Hg0 mi
7:30 AM43 °FFog.No wind100%30.04 "Hg0 mi
7:00 AM43 °FFog.No wind100%30.04 "Hg0 mi
6:30 AM43 °FFog.No wind100%30.01 "Hg0 mi
6:00 AM43 °FFog.No wind100%30.01 "Hg0 mi
5:30 AM43 °FFog.No wind100%29.98 "Hg0 mi
5:00 AM43 °FFog.No wind100%29.98 "Hg0 mi
Weather by CustomWeather, © 2014

See weather overviewHow to use our weather pages